This is the latest recevied weather packets stored in our database for station/object KB1JLI. If no packets are shown the sender has not sent any weather packets the latest 10 day(s).
| Time | Temp. | Humidity | Pressure | Rain* | Wind** | Luminosity | Snow |
|---|---|---|---|---|---|---|---|
| 1777893169 | 8.89° C | 61% | 1010.7 hPa | 0 mm | - | 45 W/m² | - |
| 1777892866 | 8.89° C | 59% | 1010.5 hPa | 0 mm | - | 44 W/m² | - |
| 1777892562 | 8.89° C | 58% | 1010.4 hPa | 0 mm | - | 39 W/m² | - |
| 1777892258 | 9.44° C | 57% | 1010.5 hPa | 0 mm | - | 38 W/m² | - |
| 1777891954 | 9.44° C | 57% | 1010.5 hPa | 0 mm | - | 38 W/m² | - |
| 1777891653 | 9.44° C | 56% | 1010.6 hPa | 0 mm | - | 32 W/m² | - |
| 1777891348 | 9.44° C | 56% | 1010.4 hPa | 0 mm | - | 25 W/m² | - |
| 1777891043 | 9.44° C | 57% | 1010.6 hPa | 0 mm | - | 18 W/m² | - |
| 1777890738 | 9.44° C | 55% | 1010.8 hPa | 0 mm | - | 32 W/m² | - |
| 1777890434 | 9.44° C | 56% | 1010.5 hPa | 0 mm | - | 27 W/m² | - |
| 1777890130 | 9.44° C | 55% | 1010.5 hPa | 0 mm | - | 18 W/m² | - |
| 1777889827 | 8.89° C | 55% | 1010.6 hPa | 0 mm | - | 12 W/m² | - |
| 1777889524 | 8.89° C | 56% | 1010.5 hPa | 0 mm | - | 14 W/m² | - |
| 1777889222 | 8.89° C | 55% | 1010.3 hPa | 0 mm | - | 11 W/m² | - |
| 1777888920 | 8.89° C | 57% | 1010.3 hPa | 0 mm | - | 7 W/m² | - |
| 1777888616 | 8.89° C | 57% | 1010.3 hPa | 0 mm | - | 5 W/m² | - |
| 1777888312 | 8.89° C | 57% | 1010.5 hPa | 0 mm | - | 3 W/m² | - |
| 1777888009 | 8.89° C | 57% | 1010.3 hPa | 0 mm | - | 2 W/m² | - |
| 1777887706 | 8.33° C | 58% | 1010.5 hPa | 0 mm | - | 2 W/m² | - |
| 1777887403 | 8.33° C | 58% | 1010.5 hPa | 0 mm | - | 1 W/m² | - |
| 1777887098 | 8.89° C | 57% | 1010.3 hPa | 0 mm | - | 1 W/m² | - |
| 1777886794 | 8.89° C | 56% | 1010.2 hPa | 0 mm | - | 0 W/m² | - |
| 1777886491 | 8.89° C | 56% | 1010.3 hPa | 0 mm | - | 0 W/m² | - |
| 1777886189 | 8.89° C | 56% | 1010.4 hPa | 0 mm | - | 0 W/m² | - |
| 1777885886 | 8.89° C | 56% | 1010.3 hPa | 0 mm | - | 0 W/m² | - |
* Rain latest hour (hover to see other rain measurements)
** Current wind speed in m/s (hover to see current wind gust speed)